RH
73 46 42 36 37 42 47 52 57 63 67 64 57 57 67 70 80 56 43 36 77 84 81 84 85 81 22 23 44 39 46 48 52 40 38 63 76 79 51 51 51 64 70
66 54 46 42 39 37 44 50 66 62 69 66 59 59 70 73 78 54 58 70 84 84 81 87 83 28 20 24 28 25 29 33 33 36 47 56 78 75 48 48 66 80 78
70 63 52 50 47 41 42 43 48 57 63 68 62 60 67 77 76 58 76 86 88 84 78 85 55 22 23 24 24 35 48 51 45 31 30 37 47 59 61 82 71 79 82
76 72 57 58 56 49 49 48 46 47 54 62 63 59 59 76 74 66 83 83 77 68 73 68 28 25 26 27 32 48 54 55 42 35 30 27 33 37 49 61 55 60 68
80 76 70 59 62 58 53 51 49 48 51 53 61 60 69 79 74 48 75 72 71 53 64 48 30 27 30 33 37 48 58 58 51 42 34 31 30 31 31 33 34 39 50
76 75 74 69 67 65 57 52 46 41 57 60 65 59 71 80 76 35 61 78 55 53 53 34 29 33 35 36 39 46 50 48 43 38 34 35 34 34 33 33 33 32 32
72 78 77 80 72 68 59 52 39 35 62 57 62 63 80 78 67 46 84 83 37 42 33 31 33 35 36 36 40 51 55 57 47 46 40 40 39 39 38 37 37 37 37
68 80 81 85 80 67 58 48 40 49 54 63 69 66 87 79 52 74 94 56 32 61 36 33 34 36 37 38 42 47 54 57 53 51 44 46 45 44 43 43 44 45 46
80 86 88 92 83 68 61 48 54 54 59 66 68 74 91 91 42 84 100 58 74 88 37 36 38 40 41 41 41 47 60 61 52 60 56 49 49 47 47 48 50 53 55
78 88 86 96 89 73 61 52 58 64 60 70 78 90 95 87 74 98 98 37 87 77 38 39 41 40 41 40 42 44 60 65 58 61 60 51 50 50 51 52 55 58 61
75 80 96 97 92 78 66 45 60 76 72 70 82 93 100 83 73 100 96 52 85 39 40 43 42 41 41 41 41 43 55 62 67 66 66 61 52 51 51 53 59 64 66
58 66 76 90 95 84 74 52 58 86 77 84 86 99 100 83 97 98 97 60 73 46 44 43 41 40 38 38 38 40 55 59 62 62 64 61 53 53 54 56 62 66 71
55 61 66 74 80 85 82 87 68 84 92 89 96 99 100 81 78 88 99 96 52 49 47 42 38 37 37 41 44 49 58 59 63 66 67 67 60 56 57 62 71 72 69
53 50 53 66 76 81 87 80 96 72 97 99 99 99 99 76 46 64 77 62 40 46 47 43 37 37 38 42 44 54 64 59 65 74 78 73 74 63 63 70 73 71 68
48 49 57 57 57 72 73 93 96 95 62 96 99 99 100 90 43 50 36 35 41 47 45 37 38 41 46 43 49 59 73 75 82 82 83 78 78 83 78 75 77 78 76
62 52 54 54 45 51 48 54 82 98 82 63 90 98 99 78 45 47 40 40 44 42 38 41 44 44 48 51 55 61 68 82 78 76 79 75 78 82 75 80 79 72 67
66 67 63 54 50 46 48 72 68 75 99 60 82 67 87 76 62 49 45 41 39 40 44 45 52 56 56 57 68 74 77 78 82 78 75 74 72 78 76 83 76 66 55
61 64 64 72 58 47 49 68 42 75 95 67 75 74 83 86 73 54 50 37 35 40 45 45 49 57 61 61 71 74 74 73 80 78 74 72 75 74 79 82 82 57 42
56 72 86 77 62 54 59 73 80 76 94 85 78 88 88 88 81 77 58 48 46 47 47 50 56 52 57 60 62 62 69 75 76 75 72 74 70 71 76 80 73 46 34
52 75 76 78 73 73 70 72 64 96 94 86 83 88 88 85 76 70 57 53 54 60 65 62 57 59 60 66 74 74 67 76 76 77 76 71 68 71 74 78 42 35 34
62 68 94 89 93 99 79 66 95 99 95 91 84 86 82 63 58 56 64 83 89 80 67 60 64 75 77 79 78 78 76 75 75 75 74 77 76 72 72 38 40 50 42
57 59 99 96 99 94 81 64 66 82 92 84 75 68 58 68 68 74 88 84 85 79 75 77 81 76 84 84 80 77 79 75 74 75 78 81 76 75 46 50 56 52 39
65 58 66 100 93 80 85 84 83 94 99 94 84 82 83 77 82 82 71 72 77 82 77 79 74 71 73 82 79 79 84 68 67 69 79 79 76 67 61 65 64 59 49
78 77 85 99 100 93 86 82 83 86 83 86 81 82 74 77 74 79 80 82 78 76 73 68 63 68 69 70 72 75 85 81 80 86 83 84 82 75 74 64 54 55 43
79 86 96 100 100 98 83 83 84 90 81 90 85 84 84 81 80 83 80 77 69 71 69 66 62 64 68 71 73 64 69 78 94 83 82 79 78 72 66 59 54 56 52
94 82 100 99 100 96 90 90 84 88 84 82 69 80 81 77 83 74 79 79 78 76 70 66 67 75 73 70 77 68 64 62 78 92 83 78 76 71 72 72 54 49 47
Wind_Speed
18 25 27 27 25 23 21 21 20 19 19 17 14 14 13 15 16 14 16 20 20 19 19 17 19 16 16 17 17 19 19 19 16 15 15 16 15 13 15 13 15 16 15
18 22 27 27 26 23 22 21 20 19 18 17 15 14 14 15 15 15 18 18 17 18 20 16 17 17 18 19 20 20 19 18 18 16 14 14 15 16 16 17 17 16 16
17 23 27 27 26 24 22 20 19 19 19 18 17 15 14 16 16 17 19 19 18 17 19 13 16 18 19 19 19 20 19 17 16 15 13 12 14 14 16 16 13 15 16
16 20 27 26 25 24 22 20 19 19 19 19 17 15 16 17 17 18 19 18 16 18 19 14 17 18 18 19 20 18 16 14 13 13 12 11 11 12 12 12 14 12 12
15 12 23 26 25 23 21 20 19 20 20 20 19 17 17 19 18 19 20 17 16 20 20 17 17 17 18 18 17 16 14 11 10 10 10 11 10 10 10 10 11 11 9
12 9 20 24 24 22 20 18 18 20 21 21 21 20 20 20 20 21 20 17 15 28 21 20 17 17 17 16 16 14 14 12 10 10 10 10 9 10 11 10 10 10 9
14 13 14 21 21 20 18 16 17 19 22 22 23 22 23 20 21 25 21 18 21 23 22 20 18 17 16 15 14 13 12 9 10 10 9 9 9 10 10 10 10 10 10
14 15 17 19 20 19 17 15 17 18 24 24 24 23 24 21 23 27 23 21 24 22 21 19 17 16 15 14 12 11 10 8 8 8 8 7 8 8 8 9 9 9 9
15 17 20 21 20 18 17 15 16 19 24 25 25 25 25 22 26 27 24 24 23 21 21 19 17 14 13 12 11 10 8 7 5 6 7 6 6 7 7 7 7 7 7
20 23 25 22 22 19 18 15 17 20 24 24 25 26 26 24 31 26 24 27 22 21 21 18 15 13 11 10 10 10 8 7 3 3 5 5 4 4 4 4 5 6 6
20 23 27 27 25 21 18 17 19 19 22 24 25 27 28 27 28 27 25 26 22 24 21 18 14 12 10 9 8 8 7 6 4 3 3 3 2 2 2 3 4 5 6
23 24 27 27 29 27 20 18 21 20 24 26 28 31 32 27 31 29 26 27 23 23 21 17 14 11 9 8 7 7 6 5 3 1 2 3 3 2 2 2 2 3 5
27 26 25 29 27 25 23 20 21 22 23 27 30 34 31 30 32 32 29 25 26 24 20 17 13 10 8 8 7 7 5 4 3 1 2 3 3 4 4 3 3 4 5
29 30 30 28 27 25 24 22 21 24 25 28 32 38 33 27 32 33 32 30 27 24 19 15 12 10 8 7 6 7 4 1 7 2 4 4 5 5 5 5 6 7 6
29 30 31 30 29 31 29 22 23 25 30 28 37 38 31 29 31 32 30 29 25 22 18 16 13 11 8 6 7 7 6 5 2 1 4 6 4 5 6 7 8 8 9
28 30 31 34 31 32 34 40 33 20 34 36 37 29 25 26 28 30 28 26 24 22 19 16 13 10 6 7 8 7 9 7 6 7 8 5 5 6 10 5 6 8 9
27 29 30 33 31 26 31 40 44 32 37 38 33 29 27 24 28 28 27 28 25 22 18 15 12 11 10 10 8 10 10 10 11 9 7 7 8 9 9 8 11 14 12
20 29 32 33 32 31 28 50 38 45 38 43 36 33 33 29 27 29 28 28 25 22 18 17 15 13 12 12 11 11 14 10 14 10 9 10 10 10 10 12 16 16 14
19 21 24 29 32 32 27 31 37 32 40 37 35 34 36 32 30 30 26 25 23 21 20 18 16 15 14 13 12 10 10 9 9 10 12 11 13 12 13 16 18 15 13
25 17 28 30 34 27 28 28 32 37 37 35 37 39 35 32 30 30 27 24 23 20 19 18 16 14 12 10 8 7 9 11 11 13 12 14 15 13 16 18 16 12 12
20 18 32 30 31 35 36 36 33 40 33 39 38 42 36 31 30 29 26 23 22 22 18 18 16 14 13 11 12 12 12 14 17 14 18 19 19 21 20 15 11 12 14
21 32 22 25 30 36 45 40 40 31 33 33 31 32 32 29 28 28 27 27 23 21 20 19 18 16 15 15 13 16 15 19 21 20 19 20 22 21 16 11 12 17 16
16 31 35 37 35 29 37 35 34 25 21 32 28 26 27 29 27 27 26 25 22 19 17 16 15 15 16 16 17 17 10 15 17 21 24 23 22 19 17 16 24 20 17
18 22 29 33 40 40 33 29 27 28 26 27 28 28 25 26 25 22 20 20 19 17 19 17 15 17 18 20 22 25 26 22 11 13 25 22 20 17 17 21 18 17 19
20 21 20 30 35 32 34 32 31 27 25 24 23 26 25 23 22 19 16 17 13 15 15 14 14 20 20 23 23 23 20 19 20 15 17 24 20 18 20 17 17 17 18
19 26 28 27 26 28 33 29 30 27 22 21 24 19 19 21 17 23 23 19 19 21 22 22 21 19 21 24 22 19 18 20 23 24 23 18 19 22 18 19 17 18 19
Wind_Direction
167 175 171 168 168 170 169 168 168 167 168 167 162 159 158 159 152 139 131 132 127 123 125 121 124 127 123 118 111 107 104 102 98 93 97 99 93 92 85 85 83 76 77
164 174 174 171 168 170 172 173 172 172 172 174 166 161 159 160 153 142 136 133 131 134 131 128 132 120 118 114 110 105 104 98 92 90 92 95 92 86 86 88 83 76 76
171 174 176 174 170 170 174 176 179 179 178 176 172 172 164 163 157 146 142 146 146 146 137 142 133 121 118 115 112 109 103 97 95 93 92 93 95 89 89 86 93 88 84
180 175 180 176 174 173 175 179 183 189 186 182 180 178 172 168 162 151 152 156 161 155 148 143 129 125 121 118 117 113 107 104 99 92 89 94 98 93 97 89 83 92 89
179 186 189 181 178 178 178 182 187 193 192 188 186 183 177 173 168 161 163 164 167 163 158 144 135 129 125 123 122 117 113 103 92 86 92 91 92 89 88 85 81 83 83
191 203 195 186 182 184 183 187 191 195 194 190 187 184 179 177 170 164 168 171 169 162 154 144 139 133 128 125 122 118 113 111 103 94 92 93 92 87 84 83 81 78 72
199 196 188 198 189 188 189 190 193 191 186 190 187 185 181 179 172 160 169 178 166 152 146 145 143 137 132 129 125 119 111 104 90 86 88 88 90 89 87 84 79 73 66
202 190 186 200 198 191 196 192 191 187 184 188 187 184 184 182 173 163 167 171 162 154 154 151 147 142 137 132 127 121 113 108 88 81 82 83 90 91 87 81 77 73 66
192 191 191 197 199 195 197 191 186 183 185 188 187 187 184 185 171 165 165 165 154 156 159 156 152 147 142 138 133 130 126 108 86 91 82 71 78 84 81 79 74 67 57
201 197 191 194 196 197 195 192 187 186 188 189 189 187 185 186 170 167 166 168 162 159 164 161 157 153 148 141 136 134 136 113 107 60 52 52 59 71 76 71 64 56 47
213 208 198 190 193 196 199 194 191 189 189 193 192 190 188 187 172 171 170 167 168 168 167 165 162 158 151 144 137 140 140 124 110 56 36 11 7 25 36 42 41 38 37
213 214 214 202 191 187 189 197 194 189 192 198 196 191 191 189 176 173 171 171 173 170 171 168 167 165 158 152 146 149 151 152 146 307 315 330 316 315 320 335 1 14 15
213 219 213 215 201 192 188 186 201 199 200 200 197 196 195 193 182 179 174 178 178 174 175 174 171 171 173 173 156 151 172 176 183 215 348 348 326 307 302 308 325 341 338
225 226 222 218 212 189 197 192 196 214 208 204 198 194 196 196 188 183 183 184 181 178 179 180 179 183 192 198 174 175 179 182 203 229 342 332 337 321 307 304 315 326 328
224 227 222 223 229 229 217 187 191 211 218 209 199 193 191 197 195 189 190 189 182 183 185 187 187 191 191 198 206 195 204 167 142 232 282 328 328 343 336 310 306 308 311
223 222 222 223 235 234 239 235 246 228 219 215 212 200 197 193 198 192 191 190 188 188 189 192 195 202 203 208 209 213 205 191 204 226 243 308 321 289 323 316 314 309 304
244 248 238 233 234 241 235 227 234 259 212 214 215 207 206 201 200 193 194 189 188 189 194 194 192 198 213 219 217 213 214 216 206 232 254 259 270 290 294 287 308 312 306
248 247 253 247 240 243 240 223 245 240 211 207 210 200 198 201 202 195 190 190 191 192 195 199 203 206 210 214 217 229 230 213 217 218 236 259 256 285 275 289 305 304 298
270 248 254 236 231 239 241 227 210 216 190 199 189 191 193 197 198 198 193 191 191 192 196 199 202 210 214 217 218 220 218 216 206 233 229 242 247 259 262 279 296 289 294
247 253 249 244 236 225 218 204 186 177 186 197 196 194 195 203 200 197 194 190 192 195 197 203 205 205 208 206 205 216 220 226 228 240 244 247 251 247 259 277 279 288 300
245 253 235 240 227 209 208 193 178 186 182 196 202 204 204 196 190 189 189 187 194 200 204 204 202 203 204 204 214 221 221 232 237 247 243 247 244 253 265 265 291 304 308
250 243 232 199 191 195 195 197 204 200 194 191 193 192 193 188 186 186 189 194 198 206 208 208 204 205 207 209 219 223 231 234 241 242 238 241 243 248 249 271 295 304 303
243 246 258 219 210 198 192 187 186 175 194 184 189 190 197 196 192 192 193 197 202 208 211 220 233 242 235 232 233 232 205 243 230 232 232 228 240 236 248 282 298 291 293
222 234 237 231 209 196 191 181 177 183 185 187 187 191 191 200 196 196 201 207 208 211 218 222 226 239 238 248 248 243 245 257 223 198 206 216 226 242 254 276 273 281 290
208 231 237 166 187 178 178 177 179 178 180 184 183 181 184 184 189 186 194 209 225 222 221 228 232 222 226 234 238 245 243 236 235 208 211 213 222 245 263 263 268 282 293
229 240 195 163 141 159 159 148 157 160 161 167 187 200 212 212 213 219 216 226 233 235 241 260 256 237 243 239 247 240 240 235 246 231 226 228 258 269 262 273 278 284 293